Regional Weather Roundup
Issued by NWS

Home | Current Version | Previous Version | Text Only | Print | Product List | Glossary Off
Versions: 1 2 3 4 5 6 7 8 9 10 11 12 13 14 15 16 17 18 19 20 21 22 23 24 25 26 27

000
ASUS45 KCYS 241910
RWRWY

WYOMING REGIONAL WEATHER ROUNDUP
NATIONAL WEATHER SERVICE CHEYENNE WY
100 PM MDT SUN JUL 24 2016

NOTE:  "FAIR" INDICATES FEW OR NO CLOUDS BELOW 12,000 FEET
WITH NO SIGNIFICANT WEATHER AND/OR OBSTRUCTIONS TO VISIBILITY.

WYZ001-242000-
YELLOWSTONE NATIONAL PARK

CITY           SKY/WX    TMP DP  RH WIND       PRES   REMARKS
LK YELLOWSTONE   N/A     68  38  33 E7        30.37F
W YELLOWSTONE  NOT AVBL

$$
WYZ002>013-054>058-071-098>099-242000-
NORTHERN WYOMING

CITY           SKY/WX    TMP DP  RH WIND       PRES   REMARKS
JACKSON        SUNNY     73  30  20 SW8       30.27F
CODY           FAIR      79  39  24 E8        30.17F
GREYBULL       FAIR      83  35  18 SE6       30.10F
WORLAND        FAIR      84  38  19 CALM      30.11F
SHERIDAN       FAIR      88  39  17 MISG      30.09F
BUFFALO        FAIR      83  39  21 SE20G28   30.17F
GILLETTE       FAIR      83  43  24 S17G26    30.16F
HULETT         FAIR      79  43  27 CALM      30.18F
NEWCASTLE      FAIR      82  36  18 S18G30    30.17F

$$
WYZ014>020-022>026-101>103-242000-
CENTRAL WYOMING

CITY           SKY/WX    TMP DP  RH WIND       PRES   REMARKS
BIG PINEY      FAIR      78  28  16 VRB3      30.30F
PINEDALE       FAIR      77  25  14 E7        30.32F
DUBOIS         FAIR      75  25  15 NE5       30.29F
LANDER         FAIR      80  39  23 VRB5      30.21F
RIVERTON       FAIR      81  35  19 E7        30.20F
CASPER         FAIR      79  43  27 VRB7      30.20F
DOUGLAS          N/A    N/A N/A N/A MISG      30.19F

$$
WYZ021-027>030-104>119-242000-
SOUTHERN WYOMING

CITY           SKY/WX    TMP DP  RH WIND       PRES   REMARKS
EVANSTON       FAIR      82  21  10 SW10G17   30.30F
KEMMERER         N/A     81  21  11 W13G22    30.32S
FORT BRIDGER   FAIR      82  22  11 W6        30.32F
ROCK SPRINGS   FAIR      82  26  13 VRB3      30.28F
DIXON          FAIR      84  34  16 NW3       30.28F
RAWLINS        FAIR      81  20  10 VRB3      30.29F
SARATOGA       FAIR      81  27  13 N10       30.30F
LARAMIE        FAIR      81  33  17 N15G21    30.29F
CHEYENNE       FAIR      78  49  35 SE14      30.24F
TORRINGTON     FAIR      85  48  27 SE20G31   30.14F
PINE BLUFFS    MOCLDY    81  57  44 SE17      30.20F

$$




USA.gov is the U.S. government's official web portal to all federal, state and local government web resources and services.